Regional Weather Roundup
Issued by NWS

Home | Current Version | Previous Version | Text Only | Print | Product List | Glossary On
Versions: 1 2 3 4 5 6 7 8 9 10 11 12 13 14 15 16 17 18 19 20 21 22 23 24 25 26 27 28 29 30 31 32 33 34 35 36 37 38 39 40 41 42 43 44 45 46 47 48 49 50
000
ASUS44 KFWD 172210
RWRTX
NORTH TEXAS HOURLY WEATHER ROUNDUP
NATIONAL WEATHER SERVICE FORT WORTH TX
400 PM CST TUE JAN 17 2017

NOTE: "FAIR" INDICATES FEW OR NO CLOUDS BELOW 12,000 FEET WITH NO
SIGNIFICANT WEATHER AND/OR OBSTRUCTIONS TO VISIBILITY.

TXZ118-119-172300-
DALLAS/FORT WORTH METROPLEX

CITY           SKY/WX    TMP DP  RH WIND       PRES   REMARKS
DFW AIRPORT    CLOUDY    51  38  60 N3        30.13R
DALLAS LOVE    CLOUDY    51  40  65 CALM      30.15R
FTW MEACHAM    CLOUDY    51  37  58 CALM      30.13S
DAL-EXECUTIVE  CLOUDY    49  42  77 E5        30.14R
FTW-ALLIANCE   CLOUDY    49  40  71 NE7       30.12F
FTW-SPINKS     CLOUDY    50  37  62 E9        30.15R
ARLINGTON      CLOUDY    50  38  63 E5        30.14R
GRAND PRAIRIE  SUNNY     48  37  66 E6        30.16R
ADDISON        PTSUNNY   52  39  62 N6        30.14F
MESQUITE       PTSUNNY   50  39  66 CALM      30.15S
LANCASTER      CLOUDY    50  39  65 CALM      30.15R
$$

TXZ091>094-102>105-117-120-121-131>134-172300-
NORTH CENTRAL TEXAS

CITY           SKY/WX    TMP DP  RH WIND       PRES   REMARKS
SHRMAN/DENISON CLOUDY    50  40  68 E5        30.17S
GAINESVILLE    CLOUDY    50  37  60 CALM      30.15F
BOWIE          PTSUNNY   51  39  63 CALM      30.12F
BRIDGEPORT     CLOUDY    50  41  70 CALM      30.16R
DECATUR        CLOUDY    67  53  60 CALM      30.14F
DENTON         LGT RAIN  48  41  76 N12       30.11F
MCKINNEY       CLOUDY    50  40  68 N9        30.12F
BONHAM         CLOUDY    48  37  66 CALM      30.16S
GREENVILLE     LGT RAIN  50  39  66 NE3       30.14F
ROCKWALL       LGT RAIN  49  42  74 NE5       30.13S
TERRELL        CLOUDY    51  40  65 E7        30.15S
WAXAHACHIE     CLOUDY    48  42  77 E3        30.15S
CLEBURNE       CLOUDY    48  39  71 NE5       30.15R
GRANBURY       CLOUDY    50  39  66 NE3       30.15S
$$

TXZ083>090-098>101-113>116-127>130-139>142-154-155-172300-
WESTERN NORTH TEXAS

CITY           SKY/WX    TMP DP  RH WIND       PRES   REMARKS
WICHITA FALLS  PTSUNNY   51  37  58 VRB3      30.14R
WF-KICKAPOO    CLOUDY    51  37  59 CALM      30.15R
VERNON         CLOUDY    52  32  46 CALM      30.15R
ABILENE        LGT RAIN  42  42 100 N8        30.14R FOG     WCI  37
ABILENE-DYESS  RAIN      42  37  81 N10       30.12R WCI  36
GRAHAM         LGT RAIN  48  45  87 CALM      30.14R
BRECKENRIDGE   RAIN      48  42  79 NW5       30.14R
RANGER         CLOUDY    46  39  76 N6        30.10S
MINERAL WELLS  CLOUDY    51  38  60 N7        30.09S
STEPHENVILLE   CLOUDY    48  37  67 CALM      30.13S
COMANCHE       CLOUDY    47  40  77 E5        30.14R
BROWNWOOD      LGT RAIN  46  43  87 N7        30.10S
COLEMAN        LGT RAIN  45  43  93 N8        30.12R
$$

TXZ143>147-156>162-174-175-172300-
CENTRAL TEXAS

CITY           SKY/WX    TMP DP  RH WIND       PRES   REMARKS
WACO           CLOUDY    48  45  89 N10       30.10F
WACO-TSTC      LGT RAIN  50  43  76 N6        30.10
WACO-MCGREGOR  CLOUDY    47  45  93 NE6       30.12S
HILLSBORO      LGT RAIN  47  44  88 N5        30.12F
CORSICANA      LGT RAIN  51  45  79 NE7       30.12F
MEXIA          CLOUDY    48  45  90 NW6       30.11R
HEARNE         DRIZZLE   51  50  98 CALM      30.11S
CAMERON        CLOUDY    52  47  83 NE8       30.10F
TEMPLE         CLOUDY    48  45  89 N8        30.12R
KILLEEN        LGT RAIN  46  45  96 NE8       30.10R FOG
KILLEEN-SKYLRK LGT RAIN  47  45  93 NE7       30.12R
FORT HOOD      LGT RAIN  46  45  93 N3        30.13R
GATESVILLE     CLOUDY    46  45  93 NE6       30.13R FOG
HAMILTON       CLOUDY    48  39  71 NE9       30.09F
LAMPASAS       LGT SNOW  46  44  94 NE8       30.08F
$$

TXZ095>097-106>112-122>126-135>138-148>153-164>167-172300-
EAST TEXAS

CITY           SKY/WX    TMP DP  RH WIND       PRES   REMARKS
PARIS          CLOUDY    50  36  57 CALM      30.17S
SULPHUR SPRNGS CLOUDY    51  40  67 NE5       30.17F
MOUNT PLEASANT CLOUDY    52  40  61 CALM      30.18F
GILMER         LGT RAIN  50  44  79 CALM      30.14F
MINEOLA        CLOUDY    52  41  66 CALM      30.16R
TYLER          LGT RAIN  52  45  77 N5        30.15R
LONGVIEW       LGT RAIN  50  49  96 NE5       30.14F
MARSHALL       CLOUDY    50  48  92 CALM      30.16F
ATHENS         LGT RAIN  48  48 100 CALM      30.12F
PALESTINE      LGT RAIN  51  50  97 N6        30.12F
JACKSONVILLE   DRIZZLE   50  50 100 N7        30.13F
HENDERSON      CLOUDY    50  50 100 N6        30.13F
CENTER         RAIN      54  53  95 NE5       30.14S
NACOGDOCHES    CLOUDY    54  50  87 NE5       30.11S
LUFKIN         CLOUDY    54  52  93 NE6       30.10F
$$

SUPPLEMENTAL OBSERVATIONS (CENTRAL)

CITY           SKY/WX    TMP DP  RH WIND       PRES   REMARKS
CADDO GRASSLND   N/A     48  37  66 N1          N/A
MCGREGOR         N/A     46  41  81 NE7G17      N/A
TEMPLE           N/A     48  45  87 NE10        N/A
$$

SUPPLEMENTAL OBSERVATIONS (WEST)

CITY           SKY/WX    TMP DP  RH WIND       PRES   REMARKS
MILLERS CREEK    N/A     46  43  87 NW3         N/A
POSSUM KINGDOM   N/A     48  39  71 N3          N/A
LBJ GRASSLAND    N/A     52  37  58 E3          N/A
GRANBURY         N/A     48  37  66 E6          N/A
HAMBY            N/A     43  39  87 NW7         N/A  WCI  39
$$

SUPPLEMENTAL OBSERVATIONS (EAST)

CITY           SKY/WX    TMP DP  RH WIND       PRES   REMARKS
TEXARKANA        N/A     52  45  76 SW1         N/A
LINDEN           N/A     52  46  82 NW1         N/A
LUFKIN           N/A     55  50  82 MISG        N/A
N SABINE NF      N/A     54  52  94 MISG        N/A
$$

SUPPLEMENTAL OBSERVATIONS ARE A COLLECTION OF AUTOMATED INSTRUMENTS
THAT ARE MAINTAINED BY A VARIETY OF FEDERAL AND STATE AGENCIES.
CERTAIN ELEMENTS...SUCH AS HUMIDITY VALUES AND SUSTAINED WIND
SPEEDS...MAY BE APPROXIMATED.





USA.gov is the U.S. government's official web portal to all federal, state and local government web resources and services.